Погода в Гулбене

Латвия     57°10′12″N   26°44′52″E
темп.,
°C
ветер,
м/с
пор.,
м/с
влажн.,
%
обл.,
%
осадки,
мм/ч
давл.,
гПа
погр.,
м
7 марта, вс
вс723:000зюз71691100 0.1 10021236
02:000з81697100 1.4 9991300
05:00−3зсз31278100 2.7 9981387
08:00−3зюз5877100 2.8 996818
11:00−2зсз81556100 3.1 9972396
14:00−1зсз81552100 3.2 9982156
17:00−3зсз61467100 0.1 9981584
20:00−4зсз61189100 0.3 999980
8 марта, пн
пн823:00−4сз4991100 0.3 1001838
02:00−6с388598 0.4 1004417
05:00−7ссз4108851 0.0 1006719
08:00−8ссз598376 0.1 1009917
11:00−6с4776100 0.1 1012914
14:00−5ссз4674100 0.2 1014925
17:00−5ссз3674100 0.0 1015922
20:00−9ссз388879 0.1 1018262
9 марта, вт
вт923:00−11с23930 0.0 101994
02:00−11сз12910 0.0 102035
05:00−12сз119020 0.0 102021
08:00−9ююз238056 0.0 1020123
11:00−5юз356792 0.0 1020575
14:00−2юз475996 0.0 10191010
17:00−2зюз4867100 0.0 1017906
20:00−3юз41176100 0.0 1017511
10 марта, ср
ср1023:00−3зюз41179100 0.0 1017602
02:00−4зюз31084100 0.0 1017463
05:00−4зюз2695100 0.6 1017338
08:00−6всв3594100 2.1 1019215
11:00−6всв368599 0.5 1020366
14:00−5всв468399 0.6 1020490
17:00−6всв478899 0.2 1020511
20:00−7всв379298 0.3 1021426
11 марта, чт
чт1123:00−9всв379498 0.1 1021360
02:00−11всв249799 0.1 1021158
05:00−12в259796 0.0 1020172
08:00−11юв249396 0.1 1019194
11:00−5юв368064 0.0 1017346
14:00−1ююв587349 0.0 1014944
17:00−2ююв51073100 0.0 1011859
20:00−2ююв71570100 0.0 10071022